Theta_e
313 315 316 313 320 315 318 320 320 323 324 325 325 328 333 336 343 343 342 348 338 338 342 342 344 342 342 342 342 340 333 331 326 322 322 321 319 320 319 320 324 326 328 329 332 335 329 325 324
314 316 312 320 317 320 320 317 320 322 324 326 327 326 339 345 343 344 348 346 338 336 341 342 344 342 342 340 340 339 333 331 326 322 321 319 319 319 319 322 326 328 328 328 326 326 325 322 322
316 313 316 317 314 318 319 317 320 322 325 325 324 326 336 347 348 344 346 337 338 338 340 342 343 341 341 340 338 337 333 332 326 322 320 320 319 319 320 324 326 328 329 328 327 328 327 323 322
314 313 317 315 318 317 317 319 318 319 321 323 322 321 325 346 348 346 343 334 338 339 339 341 342 341 340 339 338 336 334 333 328 322 320 320 319 321 322 325 326 327 326 326 325 324 324 323 322
316 311 309 312 314 316 316 317 318 318 320 322 320 320 323 327 329 346 344 342 337 336 337 342 342 340 339 338 338 337 336 335 331 324 321 320 320 322 323 324 324 324 323 323 323 323 321 321 322
316 312 309 310 313 315 316 318 316 316 317 319 320 320 333 341 348 345 343 349 338 334 338 342 343 339 337 337 337 338 337 336 333 326 322 321 322 325 324 323 322 323 324 324 323 322 321 321 322
312 308 310 310 310 311 313 316 314 315 316 317 320 327 331 346 349 344 343 348 340 337 339 343 342 338 335 336 336 339 338 338 334 327 324 321 322 324 325 325 325 324 323 322 321 321 321 321 322
317 309 313 309 312 312 314 314 316 316 315 319 319 319 329 332 348 346 348 348 344 340 341 342 340 336 335 337 338 339 339 338 334 329 325 324 322 323 324 324 323 323 323 322 322 322 322 322 322
316 313 314 313 311 312 313 311 314 316 316 318 320 321 321 330 341 345 347 351 346 342 342 341 337 335 334 335 338 339 339 338 335 329 326 324 323 321 323 324 324 323 324 324 324 323 322 322 322
313 312 316 311 314 312 313 314 315 317 316 317 318 319 326 340 342 344 348 350 345 343 342 341 336 334 333 335 336 338 338 337 333 329 325 324 324 322 322 324 325 324 324 324 325 325 324 323 322
312 316 316 315 316 316 315 316 317 316 314 317 318 319 326 350 351 345 346 350 345 343 341 340 335 333 333 332 333 335 336 333 331 327 325 324 324 323 322 324 324 324 327 325 326 326 326 325 330
309 311 315 316 317 317 316 318 317 317 318 319 319 320 320 335 351 350 349 349 345 342 341 340 336 333 332 330 330 330 329 327 325 325 324 323 323 323 322 323 330 338 334 329 336 330 334 335 335
307 308 311 314 316 316 317 316 317 317 319 320 320 320 321 321 332 352 351 350 346 343 341 340 336 334 332 329 328 328 327 325 323 323 322 322 322 322 322 328 339 341 339 336 339 338 338 338 338
312 311 311 312 310 312 313 314 315 317 317 317 318 318 320 321 322 352 352 351 349 345 342 339 337 334 332 330 329 328 327 327 326 326 325 326 325 327 326 333 340 341 343 343 342 342 341 341 340
312 312 313 311 311 310 313 313 313 314 315 315 316 317 319 320 338 352 353 353 351 348 344 339 337 336 333 332 331 330 331 330 330 330 330 330 329 333 336 337 339 342 341 341 341 341 341 341 340
312 314 316 314 311 312 314 315 315 317 316 316 317 316 318 320 331 352 353 354 352 349 344 339 338 337 334 333 332 333 334 334 334 334 335 334 332 335 337 339 343 343 342 342 342 341 340 340 341
311 314 316 316 313 313 313 314 314 317 317 316 317 318 320 321 326 354 353 353 354 350 345 340 338 337 335 334 333 334 335 336 336 337 337 339 335 337 341 342 343 343 344 344 343 342 341 341 341
315 315 314 318 314 312 312 314 313 315 315 316 318 319 320 321 321 336 353 353 354 352 348 344 340 339 336 334 334 335 335 335 336 337 340 340 339 341 343 343 343 344 345 343 342 342 341 340 339
312 314 312 311 311 311 313 313 313 313 314 313 316 317 319 320 322 322 329 352 353 354 352 351 349 341 337 335 334 335 336 337 340 341 345 345 343 343 344 344 345 344 344 342 342 341 340 338 336
310 310 309 309 310 311 310 310 310 311 312 314 315 316 318 319 320 321 328 345 352 353 353 353 351 342 338 336 335 340 343 340 344 345 345 345 345 345 345 345 345 344 343 342 341 339 337 335 334
308 308 309 309 310 310 309 311 313 313 314 315 317 317 318 318 319 321 334 333 349 353 353 354 353 344 339 338 337 341 343 343 345 346 346 344 344 339 343 345 344 344 344 341 339 337 335 332 325
308 308 310 311 311 310 311 314 311 313 313 313 314 317 317 317 317 320 324 337 339 344 351 353 352 345 342 342 338 340 340 344 345 345 344 346 342 339 340 342 344 344 341 338 336 332 328 324 322
307 310 310 311 313 313 313 311 309 311 313 312 311 314 317 317 317 319 321 323 331 337 345 348 350 349 343 342 340 340 340 343 344 345 343 343 339 338 339 344 344 341 338 335 330 325 323 321 322
306 308 311 311 311 313 311 311 310 311 312 312 312 314 316 317 318 318 320 321 323 335 340 346 348 348 347 343 341 340 340 339 344 344 343 340 338 338 343 343 339 336 333 325 321 321 323 328 330
311 311 307 314 315 313 311 313 312 310 310 311 312 313 314 316 317 318 320 325 325 338 336 342 347 348 347 343 342 340 338 342 344 343 342 339 338 340 343 339 335 330 322 321 325 328 329 329 327
312 310 308 310 314 310 311 313 312 311 312 312 312 313 314 315 315 316 319 321 324 330 337 341 345 349 345 344 342 339 339 348 345 342 340 337 337 342 339 334 329 325 324 329 329 328 326 322 320
314 313 310 311 313 311 312 312 311 311 311 311 311 313 314 314 315 316 316 320 326 331 336 340 343 345 345 345 343 337 348 346 343 340 339 337 339 339 335 332 328 325 329 327 325 323 320 318 317
314 315 315 316 314 314 313 314 312 310 310 311 310 309 314 315 316 316 316 318 323 326 330 343 344 344 346 345 340 342 348 343 339 338 338 334 335 336 334 330 329 329 326 324 322 318 316 315 315
315 315 317 313 309 308 314 315 312 311 309 309 308 309 313 314 316 318 319 317 324 330 336 343 345 345 345 342 340 344 343 339 338 333 329 335 336 334 331 329 328 325 324 321 318 316 315 314 313
313 315 316 318 316 312 311 312 310 313 311 308 312 315 315 315 314 317 321 317 328 333 336 339 343 344 343 342 343 338 338 339 338 337 336 336 335 330 328 327 325 323 321 318 316 315 313 311 311
Wind_Speed
11 10 7 5 2 4 5 8 3 4 3 5 7 4 8 10 5 6 6 25 26 34 36 33 31 29 26 24 21 18 16 14 13 13 14 14 14 14 17 18 17 15 13 11 10 9 7 6 6
10 9 9 4 4 2 7 6 13 8 6 14 14 5 3 3 6 7 9 28 31 35 36 34 31 28 26 25 23 19 16 15 15 15 16 16 16 17 18 18 16 14 12 11 11 10 8 7 6
11 12 7 5 5 9 10 6 5 7 12 5 9 8 6 2 4 5 9 25 36 36 35 33 31 28 26 24 23 21 18 16 15 16 16 17 17 18 18 17 15 12 11 11 9 7 6 5 4
10 7 2 4 10 13 6 4 4 3 2 4 5 7 9 6 8 5 18 26 34 35 34 32 31 29 26 24 23 21 18 16 14 15 16 17 17 17 17 16 14 12 10 8 7 6 5 4 4
14 5 2 4 10 9 4 5 11 5 0 4 10 6 13 17 20 12 18 26 29 35 34 33 31 28 26 25 23 21 19 16 14 14 15 17 17 16 15 14 13 11 8 7 6 6 5 5 4
7 3 2 11 17 2 6 20 8 5 5 10 8 7 6 11 6 11 21 24 30 34 35 33 30 28 26 25 23 21 20 18 15 14 15 17 17 15 14 13 11 9 7 6 5 5 5 5 4
6 4 7 5 6 6 8 11 6 7 8 11 13 4 8 11 10 11 24 30 35 35 36 34 31 28 26 25 24 22 20 18 16 15 16 17 16 14 13 11 10 8 6 5 5 5 5 4 4
8 4 5 7 11 14 4 8 8 19 14 18 12 7 6 15 12 17 29 30 40 39 38 36 34 31 29 27 25 23 21 19 16 15 16 15 15 13 12 10 9 8 6 5 4 4 3 4 5
8 3 9 10 10 8 1 5 4 0 9 8 8 8 18 18 19 26 31 34 43 41 40 38 37 34 31 29 28 25 22 19 17 16 15 15 15 14 13 11 9 7 6 4 4 3 3 4 4
7 5 12 6 12 5 4 1 6 3 3 7 16 11 16 11 23 33 37 40 46 45 42 40 38 35 34 33 30 27 24 20 18 16 14 14 14 13 13 11 8 7 5 5 4 3 2 2 4
8 16 13 3 18 10 8 7 9 5 7 11 13 13 10 11 27 37 41 43 50 47 43 41 39 37 37 34 32 29 25 22 19 16 14 14 14 14 13 11 9 7 7 5 3 2 2 2 3
6 13 23 3 26 11 4 5 8 18 18 21 18 17 15 10 22 36 44 45 47 47 44 42 39 39 36 33 31 29 26 23 20 17 15 14 13 12 11 11 11 7 3 6 3 2 1 1 4
7 3 8 28 31 26 20 13 12 25 19 19 20 23 27 26 24 35 33 42 45 45 43 41 40 37 35 32 30 27 25 21 18 17 16 14 12 11 12 13 11 7 5 4 2 1 2 5 7
4 5 16 25 15 7 16 20 20 37 24 29 24 28 29 25 21 36 36 42 42 41 39 40 40 37 33 32 30 26 23 21 21 19 17 14 13 12 12 14 12 8 5 5 3 4 5 8 9
19 16 16 8 4 7 12 17 26 27 30 27 26 18 19 21 17 39 43 44 41 37 39 41 41 37 34 31 28 26 24 23 22 20 18 16 15 14 13 13 11 8 4 4 6 8 9 10 10
8 4 4 4 11 7 15 27 8 20 22 28 29 26 26 23 23 35 40 42 40 38 39 40 40 38 36 34 30 27 25 25 23 21 19 19 18 15 13 12 9 6 5 7 8 9 11 11 12
3 5 4 6 6 6 14 12 5 18 15 22 27 27 21 20 22 34 39 40 40 38 40 39 40 38 36 33 30 29 27 25 21 22 21 18 19 16 14 11 9 6 8 9 10 12 11 12 13
4 5 4 3 5 6 9 21 8 22 5 13 18 21 22 22 21 29 39 41 41 42 40 38 39 39 37 34 32 28 27 25 24 22 20 19 19 17 14 9 7 5 8 11 12 13 14 15 15
11 15 12 7 9 6 7 7 8 10 20 10 21 22 21 22 24 23 35 43 42 41 40 41 41 42 41 39 35 33 31 29 26 26 25 22 18 15 12 9 9 7 10 12 13 13 14 12 12
11 11 13 6 10 5 8 14 13 10 11 10 17 23 26 23 22 26 31 44 45 44 43 43 43 43 44 41 39 36 32 31 30 27 25 21 18 15 15 14 11 11 11 13 12 11 9 9 11
8 9 5 9 7 11 7 18 14 12 10 15 21 21 22 26 26 28 32 41 45 46 46 44 43 46 45 41 39 38 32 31 30 29 26 24 19 16 15 16 15 11 12 12 10 8 7 6 2
13 9 11 7 2 5 1 6 5 4 9 9 17 23 23 20 23 30 34 38 42 46 45 46 47 48 44 42 42 42 38 36 35 30 26 21 14 13 17 17 13 11 11 9 7 6 4 2 2
10 8 8 7 5 3 4 3 7 7 8 9 8 19 21 14 18 26 33 36 40 41 46 48 49 48 44 42 42 38 34 33 28 26 23 18 17 18 19 14 12 8 7 6 5 3 2 2 6
5 2 4 2 4 7 6 6 5 8 7 3 5 3 4 7 11 20 26 32 40 45 47 50 51 49 44 44 43 37 35 34 32 23 23 22 21 21 16 11 7 6 6 5 5 2 3 7 8
2 5 1 3 4 8 11 10 17 8 7 4 4 3 6 7 10 18 28 36 41 51 50 52 54 52 47 45 41 37 35 32 28 27 25 23 22 18 13 9 6 7 7 5 1 5 8 8 7
6 7 5 6 4 4 12 9 14 20 21 30 27 19 17 13 14 15 26 33 40 47 53 54 54 52 49 45 42 39 36 32 29 25 22 19 16 13 11 10 9 9 7 3 5 5 5 6 7
2 6 7 2 3 2 4 6 15 16 18 15 9 9 15 22 21 14 21 29 39 46 52 55 54 51 50 46 41 38 35 33 28 22 18 17 14 14 14 11 9 7 2 2 3 4 5 6 8
14 5 3 3 3 6 5 6 12 7 15 18 15 9 14 12 19 20 18 26 33 44 49 55 54 53 51 44 38 40 32 28 20 19 16 17 18 18 14 9 8 5 2 2 3 4 6 7 9
3 3 3 2 4 5 2 7 12 9 6 8 8 14 25 27 20 19 17 24 29 37 46 51 52 50 44 40 39 33 28 22 21 21 21 21 22 15 11 11 8 4 2 2 4 7 8 10 13
3 4 7 5 3 4 3 9 4 3 5 7 6 10 15 23 26 22 18 21 29 36 42 45 46 43 41 40 37 32 27 22 25 29 27 25 17 16 14 10 5 4 1 2 5 8 12 15 16
Wind_Direction
227 213 206 162 65 63 260 246 232 216 230 142 307 221 233 239 177 214 295 183 177 174 172 172 171 173 176 176 176 175 172 163 160 159 159 155 151 147 145 146 147 147 146 145 145 146 144 145 144
207 193 163 133 119 168 247 202 220 221 229 324 330 314 266 316 245 292 158 173 174 174 172 172 173 174 175 176 175 176 173 164 160 159 158 155 152 151 150 151 151 151 152 152 149 146 143 144 146
188 178 159 149 170 216 242 196 184 220 257 290 315 313 305 257 308 253 187 173 171 174 172 172 174 175 176 178 175 176 174 167 162 158 158 155 153 153 154 155 155 153 148 148 149 145 143 142 147
170 170 143 142 215 248 203 152 91 26 13 262 332 292 309 281 307 242 187 175 174 174 172 175 177 176 178 178 177 175 172 166 161 157 159 157 155 155 159 161 161 158 154 150 145 146 154 159 163
180 167 178 233 242 250 234 249 264 264 136 234 334 280 294 285 281 267 197 181 177 175 176 178 179 177 178 177 177 174 171 165 162 160 163 162 160 160 165 169 170 169 166 160 156 157 165 175 184
176 155 159 226 233 253 248 243 237 190 195 263 303 270 265 285 269 219 187 175 179 179 178 179 179 178 178 178 177 175 175 170 166 164 167 166 165 164 167 170 169 166 164 164 162 164 173 179 186
170 134 221 230 265 261 237 228 210 223 203 231 239 269 264 277 232 198 182 180 179 183 179 179 177 178 179 179 178 178 178 175 171 170 171 172 171 166 163 163 164 164 165 162 157 160 170 181 188
208 150 221 215 232 263 187 192 229 218 229 235 227 221 254 295 226 190 178 189 182 184 183 179 177 179 179 179 180 181 181 180 177 175 175 174 174 170 165 166 166 163 159 162 162 167 177 187 199
192 206 231 223 193 230 234 187 202 85 224 193 214 262 299 289 220 191 190 186 184 186 186 183 181 180 180 181 179 181 183 183 182 181 178 178 177 175 175 174 168 163 163 162 163 168 184 207 220
177 209 228 182 228 211 214 235 276 297 256 271 276 268 335 232 215 195 190 186 186 187 187 186 184 182 182 183 180 182 184 185 188 187 182 179 180 180 181 177 172 174 178 187 185 187 201 248 247
199 235 239 229 241 239 258 251 263 200 245 231 255 277 348 228 209 202 194 192 188 190 188 189 188 186 187 183 182 184 184 187 188 187 185 184 186 186 185 181 176 195 198 195 191 215 209 220 273
264 239 234 213 239 256 239 236 258 227 238 258 266 260 275 266 230 210 197 192 190 191 190 190 191 192 190 187 186 186 187 188 188 184 186 188 189 188 189 186 173 171 182 169 152 180 167 320 343
245 299 275 239 249 257 268 237 255 261 251 257 259 266 268 275 246 223 207 195 193 193 194 192 194 195 193 192 189 189 185 186 183 183 182 179 187 187 189 181 173 174 160 152 162 199 285 303 307
253 237 260 267 258 242 241 265 265 261 257 266 263 270 270 267 260 214 208 201 198 198 197 196 197 197 196 195 191 188 184 183 184 182 181 179 170 185 183 186 192 206 208 214 245 282 294 297 297
272 276 283 244 258 243 243 279 240 256 253 269 263 263 266 264 228 212 211 206 201 200 200 200 199 197 199 198 195 189 185 188 187 183 178 179 182 180 182 185 202 211 228 259 274 286 290 288 290
332 257 219 236 189 226 170 255 306 245 233 242 249 256 264 270 232 216 215 211 205 201 201 202 200 200 200 201 196 190 189 191 188 186 185 184 186 183 192 194 207 227 258 271 283 290 292 292 294
258 270 261 296 199 190 196 251 268 252 238 233 237 232 242 252 220 217 220 217 213 206 204 202 201 203 203 202 199 198 196 193 192 192 193 187 188 186 187 203 215 228 257 271 273 278 286 287 292
235 268 322 268 9 11 265 251 290 297 271 243 234 230 224 232 226 221 225 222 218 209 206 202 202 203 203 203 201 203 201 198 198 197 190 182 179 187 196 208 244 241 265 276 286 287 294 296 301
249 269 274 281 289 325 267 275 280 277 287 228 250 249 246 233 233 237 224 224 221 213 205 204 205 203 202 203 200 201 199 198 192 188 186 186 192 198 208 220 246 255 265 277 279 287 291 295 305
204 236 267 256 260 240 283 289 284 266 268 257 258 247 245 240 233 219 216 217 221 219 211 207 206 204 204 204 200 198 194 195 187 185 191 191 202 203 219 225 247 258 277 284 287 289 289 305 313
209 210 218 247 251 275 279 278 270 269 236 246 256 259 249 240 223 211 207 215 215 217 215 212 209 209 207 205 201 202 198 194 193 193 200 201 205 209 222 225 240 255 275 285 279 272 283 294 249
240 198 223 193 163 251 110 285 278 246 234 211 221 236 243 232 228 214 204 206 214 215 214 213 211 212 211 211 208 208 203 198 198 197 203 208 216 232 227 230 236 259 272 271 257 272 277 206 237
227 187 193 202 180 157 266 308 273 221 225 232 203 227 236 245 229 212 209 207 204 205 208 209 210 215 212 215 212 212 207 205 207 208 215 208 207 207 218 219 238 260 258 245 244 220 180 247 285
226 192 32 55 142 232 200 202 244 227 221 267 119 217 263 268 247 233 227 220 212 204 205 206 208 213 214 214 211 216 209 215 208 208 202 194 199 212 202 216 229 220 218 204 172 180 277 287 297
122 128 285 241 224 241 177 211 240 266 242 259 122 114 318 304 270 243 222 216 214 206 203 204 208 212 214 213 212 211 214 216 208 205 201 198 200 201 191 190 184 178 167 159 226 287 290 297 300
207 168 168 216 201 251 180 208 238 224 250 258 261 259 273 282 273 260 236 225 219 208 204 203 207 209 210 211 209 214 212 211 214 215 208 202 206 184 173 169 165 171 172 212 289 298 301 306 316
195 210 212 246 206 13 236 278 280 235 239 240 235 223 255 263 274 281 247 233 223 213 206 203 204 207 210 209 211 210 213 211 210 210 204 198 180 172 172 172 186 175 178 295 305 311 308 314 317
215 138 133 172 204 222 234 235 233 178 220 234 241 183 212 260 264 271 246 237 226 221 213 206 206 206 209 207 208 207 208 215 206 193 185 194 203 185 177 173 164 159 194 265 294 311 325 319 318
168 224 193 171 174 198 162 237 231 236 226 226 245 223 217 224 250 261 261 238 229 218 211 207 204 205 206 202 200 202 199 192 174 174 161 218 180 171 163 163 164 176 203 267 324 327 322 319 323
263 279 196 239 224 225 200 259 10 141 251 219 223 215 223 227 231 250 271 234 218 209 206 204 199 196 199 194 196 192 199 188 179 175 170 173 172 161 167 163 165 161 186 329 325 321 324 322 322